Meteopurmerend
purmerend
Purmerend - Baaienwijk



My webcam  My webcam


waarschuwing voor Onweer Meer informatie blitzortung!


Regen radar Meer informatie rain snow radar


Bezoek onze andere website:

CandyAppleRed WebdesignWebdesign Purmerend Candy Apple Red

MeteopurmerendBlog

Template documentation
and downloads



Onweer van: 26-07-2021 13:00 tot: 21:00 waarschuwing voor: Onweer niveau: Geel info button
Enkele onweersbuien, lokaal met hagel en veel neerslag in korte tijd.Kans op blikseminslag, hagel en veel neerslag in korte tijd.Verkeer en buitenactiviteiten kunnen hinder ondervinden.Mijd open water en open gebied, schuil niet onder bomen.Volg weerberichten en waarschuwingen.

15 daagse weersverwachting Sankt Pölten (AT)

  • Overzicht
  • Per uur
  • 15 dagen
  • Extra
  • Vergelijk
  • Kaarten
  • Dagkaart
  • Meer »
  • Info
  • Statistieken
  • Directe link
    Temp 6h Neerslag Wind  
 05:28     20:41    Daglengte: 15:13 Vandaag
20:00
25°
 
3
 05:29     20:40    Daglengte: 15:11 Morgen
02:00
20°
 
5
08:00
20°
 
5
14:00
27°
 
2
20:00
25°
 
2
 05:30     20:39    Daglengte: 15:09 Woensdag 28 Jul
02:00
21°
 
1
08:00
21°
 
3
14:00
25°
4.1 mm
4
20:00
21°
13.9 mm
6
 05:31     20:37    Daglengte: 15:06 Donderdag 29 Jul
02:00
18°
13.7 mm
3
08:00
19°
 
3
Locatie info
Region: Niederösterreich
Latitude: 48.2073°N
Longitude: 15.6199°E
275 masl
Postcode: 3100
Temp/Neerslag /Baro Onweer/Dauwpunt
    Temp Baro 1h Neerslag Dauwpunt Wind UV Bewolking  
 05:28     20:41    Daglengte: 15:13 Vandaag
16:00
29°
1010.4 hPa
46%
20.0°
4
Windvlaag: -2.3 m/s
61%
17:00
27°
1010.2 hPa
34%
21.5°
3
Windvlaag: -3.1 m/s
29%
18:00
28°
1010.1 hPa
31%
21.4°
3
Windvlaag: -2.5 m/s
22%
19:00
27°
1009.9 hPa
32%
21.4°
2
Windvlaag: -2.1 m/s
33%
20:00
25°
1010.1 hPa
68%
21.5°
3
Windvlaag: -0.8 m/s
15%
21:00
23°
1010.8 hPa
26%
19.8°
2
Windvlaag: -2.1 m/s
15%
22:00
22°
1011.5 hPa
81%
17.9°
3
Windvlaag: -1.6 m/s
17% warningclass
23:00
21°
1011.8 hPa
80%
17.2°
3
Windvlaag: 2.3 m/s
9%
 05:29     20:40    Daglengte: 15:11 Morgen
00:00
21°
1012.3 hPa
69%
17.5°
3
Windvlaag: 3.7 m/s
25%
01:00
21°
1012.8 hPa
33%
16.9°
4
Windvlaag: 4.9 m/s
36%
02:00
20°
1013.0 hPa
14%
16.8°
5
Windvlaag: 4.9 m/s
16%
03:00
20°
1013.2 hPa
14%
17.5°
4
Windvlaag: 3.8 m/s
13%
04:00
20°
1013.5 hPa
14%
17.7°
5
Windvlaag: 4.3 m/s
14%
05:00
20°
1013.8 hPa
14%
17.7°
5
Windvlaag: 4.9 m/s
20%
06:00
20°
1014.3 hPa
14%
17.7°
5
Windvlaag: 4.7 m/s
16%
07:00
20°
1014.8 hPa
14%
17.7°
5
Windvlaag: 4.3 m/s
14%
08:00
20°
1015.2 hPa
14%
17.9°
5
Windvlaag: 4.5 m/s
40%
09:00
21°
1015.5 hPa
14%
18.0°
5
Windvlaag: 3.9 m/s
46%
10:00
23°
1015.6 hPa
14%
17.9°
5
Windvlaag: 3.6 m/s
36%
11:00
24°
1015.5 hPa
14%
17.9°
5
Windvlaag: 2.9 m/s
45%
12:00
25°
1015.2 hPa
14%
18.1°
4
Windvlaag: 3 m/s
52%
13:00
26°
1014.5 hPa
17%
18.1°
3
Windvlaag: 2.2 m/s
50%
14:00
27°
1013.8 hPa
22%
17.9°
2
Windvlaag: 1.2 m/s
10%
15:00
27°
1013.2 hPa
22%
18.3°
2
Windvlaag: 0.8 m/s
10%
16:00
28°
1012.8 hPa
19%
18.8°
2
Windvlaag: 0.4 m/s
35%
17:00
27°
1012.5 hPa
21%
18.5°
2
Windvlaag: 0.6 m/s
31%
18:00
27°
1012.3 hPa
17%
19.5°
2
Windvlaag: 1 m/s
8%
19:00
26°
1012.2 hPa
14%
20.1°
2
Windvlaag: -0.2 m/s
15%
20:00
25°
1012.4 hPa
58%
21.0°
2
Windvlaag: -1.9 m/s
15%
21:00
24°
1012.5 hPa
18%
21.0°
2
Windvlaag: -1.6 m/s
19%
22:00
23°
1013.0 hPa
14%
20.6°
2
Windvlaag: -0 m/s
17%
23:00
22°
1013.5 hPa
17%
20.3°
1
Windvlaag: 0.9 m/s
10%
 05:30     20:39    Daglengte: 15:09 Woensdag 28 Jul
00:00
22°
1013.6 hPa
14%
20.4°
1
Windvlaag: 2.2 m/s
30%
01:00
21°
1013.5 hPa
14%
19.9°
1
Windvlaag: 1.5 m/s
13%
02:00
21°
1013.3 hPa
14%
19.3°
1
Windvlaag: 1.9 m/s
16%
03:00
20°
1013.2 hPa
14%
18.5°
1
Windvlaag: 2.5 m/s
33%
04:00
20°
1013.0 hPa
14%
18.1°
1
Windvlaag: 2.3 m/s
32%
05:00
19°
1012.9 hPa
14%
17.8°
1
Windvlaag: 0.5 m/s
12%
06:00
19°
1013.0 hPa
14%
17.7°
1
Windvlaag: -0.2 m/s
35%
07:00
20°
1013.0 hPa
14%
17.7°
2
Windvlaag: 1.4 m/s
9%
08:00
21°
1013.1 hPa
14%
18.7°
3
Windvlaag: 2.2 m/s
8%
09:00
23°
1013.5 hPa
25%
19.2°
3
Windvlaag: 2.6 m/s
33%
10:00
24°
1014.1 hPa
74%
18.7°
4
Windvlaag: 2.3 m/s
48%
11:00
24°
1013.2 hPa 0.8 mm
42%
14.7°
4
Windvlaag: 2.3 m/s
47%
12:00
25°
1013.1 hPa
86%
13.7°
5
Windvlaag: 3.1 m/s
13%
13:00
26°
1012.8 hPa 1.3 mm
86%
13.8°
4
Windvlaag: 3.2 m/s
65%
14:00
25°
1012.6 hPa 2.0 mm
31%
12.3°
4
Windvlaag: 1.3 m/s
30%
15:00
26°
1012.4 hPa 1.2 mm
37%
13.0°
3
Windvlaag: -0 m/s
77%
16:00
26°
1012.3 hPa 2.0 mm
39%
13.2°
3
Windvlaag: -1.2 m/s
59% warningclass
17:00
25°
1012.4 hPa 2.0 mm
40%
15.0°
4
Windvlaag: -0.9 m/s
84% warningclass
18:00
23°
1013.4 hPa 1.5 mm
94%
21.5°
5
Windvlaag: 4.2 m/s
94%
19:00
22°
1013.6 hPa 3.3 mm
87%
19.1°
6
Windvlaag: 3.9 m/s
92%
20:00
21°
1014.0 hPa 3.9 mm
34%
17.5°
6
Windvlaag: 5.1 m/s
76%
21:00
20°
1014.8 hPa 4.6 mm
21%
17.0°
6
Windvlaag: 5.7 m/s
59%
22:00
19°
1015.1 hPa 3.2 mm
21%
16.4°
5
Windvlaag: 5.7 m/s
32%
23:00
19°
1015.3 hPa 3.0 mm
21%
15.6°
4
Windvlaag: 5.7 m/s
24%
 05:31     20:37    Daglengte: 15:06 Donderdag 29 Jul
00:00
18°
1015.3 hPa 3.0 mm
21%
14.9°
4
Windvlaag: 4.6 m/s
22%
01:00
18°
1015.1 hPa
21%
14.3°
3
Windvlaag: 4.1 m/s
28%
02:00
18°
1014.8 hPa
21%
13.9°
3
Windvlaag: 2.7 m/s
38%
03:00
18°
1014.7 hPa
21%
13.3°
2
Windvlaag: 2.1 m/s
35%
04:00
17°
1014.5 hPa
21%
12.7°
3
Windvlaag: 3.1 m/s
39%
05:00
17°
1014.6 hPa
21%
12.2°
3
Windvlaag: 3.1 m/s
32%
06:00
17°
1014.6 hPa
21%
12.8°
2
Windvlaag: 2.9 m/s
37%
07:00
18°
1014.8 hPa
21%
11.6°
2
Windvlaag: 2.1 m/s
42%
08:00
19°
1014.8 hPa
21%
12.1°
3
Windvlaag: 2.8 m/s
53%
09:00
21°
1015.4 hPa
21%
11.9°
3
Windvlaag: 6.3 m/s
67%
10:00
22°
1015.1 hPa
21%
12.0°
3
Windvlaag: 5.4 m/s
48%
11:00
24°
1014.7 hPa
21%
12.3°
3
Windvlaag: 4.8 m/s
57%
12:00
25°
1014.3 hPa
21%
12.3°
2
Windvlaag: 3.9 m/s
17%
13:00
27°
1013.7 hPa
21%
13.0°
2
Windvlaag: 4.9 m/s
2%
14:00
28°
Voelt als: 27.5°
1013.0 hPa
21%
13.5°
2
Windvlaag: 5.2 m/s
5%
Temp/Neerslag /Baro Onweer/Dauwpunt
    Temp Baro Neerslag Dauwpunt Wind Bewolking  
 05:28     20:41    Daglengte: 15:13 Vandaag
17:00
27°
1010.2 hPa   21.5°
3
29%
20:00
25°
1010.1 hPa   21.5°
3
15%
23:00
21°
1011.8 hPa   17.2°
3
9%
 05:29     20:40    Daglengte: 15:11 Morgen
02:00
20°
1013.0 hPa   16.8°
5
16%
05:00
20°
1013.8 hPa   17.7°
5
20%
08:00
20°
1015.2 hPa   17.9°
5
40%
11:00
24°
1015.5 hPa   17.9°
5
45%
14:00
27°
1013.8 hPa   17.9°
2
10%
17:00
27°
1012.5 hPa   18.5°
2
31%
20:00
25°
1012.4 hPa   21.0°
2
15%
23:00
22°
1013.5 hPa   20.3°
1
10%
 05:30     20:39    Daglengte: 15:09 Woensdag 28 Jul
02:00
21°
1013.3 hPa   19.3°
1
16%
05:00
19°
1012.9 hPa   17.8°
1
12%
08:00
21°
1013.1 hPa   18.7°
3
8%
11:00
24°
1013.2 hPa 0.8 mm 14.7°
4
47%
14:00
25°
1012.6 hPa 3.3 mm 12.3°
4
30%
17:00
25°
1012.4 hPa 5.2 mm 15.0°
4
84% warningclass
20:00
21°
1014.0 hPa 8.7 mm 17.5°
6
76%
23:00
19°
1015.3 hPa 10.7 mm 15.6°
4
24%
 05:31     20:37    Daglengte: 15:06 Donderdag 29 Jul
02:00
18°
1014.8 hPa 3.0 mm 13.9°
3
38%
05:00
17°
1014.6 hPa   12.2°
3
32%
08:00
19°
1014.8 hPa   12.1°
3
53%
11:00
24°
1014.7 hPa   12.3°
3
57%
14:00
28°
Voelt als: 27.5°
1013.0 hPa   13.5°
2
5%
17:00
28°
1012.4 hPa 15.9 mm 17.9°
1
1%
20:00
24°
1012.1 hPa 15.9 mm 17.3°
1
0%
23:00
19°
1012.8 hPa 15.9 mm 15.0°
2
0%
 05:33     20:36    Daglengte: 15:03 Vrijdag 30 Jul
02:00
18°
1013.5 hPa 16.0 mm 15.7°
1
0%
05:00
17°
1013.5 hPa 16.7 mm 16.4°
2
1%
08:00
19°
1013.9 hPa 18.6 mm 17.7°
1
1%
11:00
22°
1013.7 hPa 18.8 mm 19.0°
2
1%
14:00
25°
1012.0 hPa 18.8 mm 18.5°
3
1%
17:00
28°
1010.7 hPa 18.9 mm 16.9°
2
0%
20:00
23°
1009.9 hPa 18.9 mm 18.5°
1
0%
23:00
19°
1010.3 hPa 18.9 mm 16.7°
1
1%
 05:34     20:35    Daglengte: 15:01 Zaterdag 31 Jul
02:00
18°
1010.3 hPa 18.9 mm 15.7°
1
1%
05:00
18°
1009.4 hPa 19.4 mm 16.4°
1
1%
08:00
17°
1010.9 hPa 22.9 mm 17.1°
2
1%
11:00
19°
1010.6 hPa 23.5 mm 17.9°
1
1%
14:00
25°
1009.6 hPa 23.5 mm 18.0°
0
1%
17:00
27°
1007.4 hPa 23.5 mm 16.4°
2
1%
20:00
19°
1010.0 hPa 30.0 mm 17.5°
3
1%
23:00
17°
1010.4 hPa 31.8 mm 15.9°
2
1%
 05:35     20:33    Daglengte: 14:58 Zondag 01 Aug
02:00
17°
1011.3 hPa 33.6 mm 17.0°
2
1%
05:00
17°
1010.8 hPa 37.6 mm 16.6°
2
1%
08:00
16°
1010.7 hPa 40.4 mm 16.0°
1
1%
11:00
19°
1009.5 hPa 40.9 mm 16.6°
0
1%
14:00
16°
1009.4 hPa 43.7 mm 15.9°
2
1%
17:00
14°
1011.7 hPa 50.5 mm 13.1°
5
1%
20:00
13°
1012.8 hPa 56.3 mm 12.1°
4
1%
23:00
11°
1012.7 hPa 56.3 mm 10.8°
3
1%
 05:36     20:32    Daglengte: 14:56 Maandag 02 Aug
02:00
10°
1013.4 hPa 56.3 mm 9.6°
3
1%
05:00
10°
1014.2 hPa 56.3 mm 9.6°
4
0%
08:00
14°
1015.6 hPa 56.3 mm 11.9°
4
0%
11:00
19°
1015.9 hPa 56.3 mm 11.0°
7
0%
14:00
22°
1015.3 hPa 112.7 mm 10.7°
6
0%
20:00
18°
1015.9 hPa 112.7 mm 12.6°
3
0%
 05:38     20:30    Daglengte: 14:52 Dinsdag 03 Aug
02:00
16°
1018.1 hPa 112.7 mm 10.8°
1
1%
08:00
17°
1018.7 hPa 112.7 mm 11.3°
1
1%
14:00
21°
1017.1 hPa 113.5 mm 15.2°
2
1%
20:00
19°
1017.0 hPa 117.6 mm 15.2°
2
0%
 05:39     20:29    Daglengte: 14:50 Woensdag 04 Aug
02:00
14°
1019.8 hPa 117.7 mm 12.6°
2
0%
08:00
17°
1019.2 hPa 117.7 mm 13.4°
1
0%
14:00
27°
Voelt als: 27.2°
1016.0 hPa 117.7 mm 13.6°
1
0%
20:00
22°
1014.0 hPa 117.7 mm 14.0°
0
1%
 05:40     20:27    Daglengte: 14:47 Donderdag 05 Aug
02:00
17°
1013.8 hPa 117.7 mm 13.2°
2
0%
08:00
20°
1013.4 hPa 117.7 mm 15.8°
1
1%
14:00
25°
1013.6 hPa 0.6 mm 14.3°
1
48%
20:00
20°
1012.1 hPa 1.4 mm 15.2°
0
57%
 05:42     20:26    Daglengte: 14:44 Vrijdag 06 Aug
02:00
16°
1012.6 hPa 0.7 mm 13.4°
2
72%
08:00
18°
1011.7 hPa 0.4 mm 14.2°
1
75%
14:00
24°
1009.7 hPa 0.8 mm 15.3°
1
73%
20:00
19°
1008.5 hPa 1.5 mm 15.4°
2
73%
 05:43     20:24    Daglengte: 14:41 Zaterdag 07 Aug
02:00
16°
1009.6 hPa 1.9 mm 14.0°
3
80%
08:00
16°
1009.8 hPa 1.5 mm 14.1°
3
81%
14:00
21°
1009.6 hPa 2.1 mm 14.2°
3
77%
20:00
18°
1009.8 hPa 1.5 mm 13.7°
3
74%
 05:44     20:22    Daglengte: 14:38 Zondag 08 Aug
02:00
15°
1011.6 hPa 2.0 mm 12.3°
3
73%
08:00
16°
1012.8 hPa 1.6 mm 12.7°
4
70%
14:00
21°
1013.0 hPa 1.6 mm 13.0°
4
70%
20:00
17°
1013.8 hPa 1.5 mm 13.4°
3
68%
 05:46     20:21    Daglengte: 14:35 Maandag 09 Aug
02:00
14°
1016.0 hPa 0.5 mm 12.3°
3
58%
08:00
16°
1016.8 hPa 0.6 mm 12.8°
3
63%
14:00
22°
1016.4 hPa 0.5 mm 13.1°
4
54%
20:00
18°
1016.5 hPa 0.3 mm 13.1°
2
54%
 05:47     20:19    Daglengte: 14:32 Dinsdag 10 Aug
02:00
15°
1018.2 hPa 0.2 mm 12.0°
2
52%
08:00
17°
1018.6 hPa 0.2 mm 12.7°
2
53%
14:00
23°
1017.6 hPa 0.6 mm 13.5°
3
48%
  CAPE Lifted Index Hail Supercell Tornado SRH 3km CL BTM PRES CL TOP PRES Swiss DWD icon SMHI TS
 05:28     20:41    Daglengte: 15:13 Vandaag
16:00 1280 J/kg -4.3 K 0 % 0 % 0 % 0 m²/s² 0 0 -2.35 3
17:00 1453 J/kg -5.5 K 0 % 0 % 0 % 0 m²/s² 0 0 -4.57 3
18:00 1854 J/kg -6.8 K 0 % 0 % 0 % 0 m²/s² 0 0 -6.02 3
19:00 1586 J/kg -5.3 K 0 % 0 % 0 % 0 m²/s² 0 0 -4.58 3
20:00 14 J/kg -1.1 K 0 % 0 % 0 % 0 m²/s² 0 0 -0.65 3
21:00 0 J/kg 0.4 K 0 % 0 % 0 % 0 m²/s² 0 0 1.48 3
22:00 0 J/kg 0.9 K 0 % 0 % 0 % 0 m²/s² 0 0 2.43 95
23:00 0 J/kg 0.7 K 0 % 0 % 0 % 0 m²/s² 0 0 1.99 80
 05:29     20:40    Daglengte: 15:11 Morgen
00:00 0 J/kg -0.9 K 0 % 0 % 0 % 0 m²/s² 0 0 1.17 3
01:00 0 J/kg -1.0 K 0 % 0 % 0 % 0 m²/s² 0 0 0.89 2
02:00 0 J/kg -0.2 K 0 % 0 % 0 % 0 m²/s² 0 0 0.94 2
03:00 0 J/kg 0.3 K 0 % 0 % 0 % 0 m²/s² 0 0 2.67 2
04:00 0 J/kg 0.7 K 0 % 0 % 0 % 0 m²/s² 0 0 2.59 2
05:00 0 J/kg 1.4 K 0 % 0 % 0 % 0 m²/s² 0 0 3.53 2
06:00 0 J/kg 2.1 K 0 % 0 % 0 % 0 m²/s² 0 0 3.54 2
07:00 0 J/kg 0.9 K 0 % 0 % 0 % 0 m²/s² 0 0 2.7 2
08:00 0 J/kg 0.7 K 0 % 0 % 0 % 0 m²/s² 0 0 2.83 3
09:00 0 J/kg 0.9 K 0 % 0 % 0 % 0 m²/s² 0 0 3.69 3
10:00 7 J/kg 0.0 K 0 % 0 % 0 % 0 m²/s² 0 0 3.03 3
11:00 122 J/kg -0.9 K 0 % 0 % 0 % 0 m²/s² 0 0 2.31 3
12:00 269 J/kg -1.5 K 0 % 0 % 0 % 0 m²/s² 0 0 1.89 3
13:00 428 J/kg -2.0 K 0 % 0 % 0 % 0 m²/s² 0 0 1.48 3
14:00 621 J/kg -3.0 K 0 % 0 % 0 % 0 m²/s² 0 0 -0.03 3
15:00 910 J/kg -3.9 K 0 % 0 % 0 % 0 m²/s² 0 0 -1.89 3
16:00 1288 J/kg -5.0 K 0 % 0 % 0 % 0 m²/s² 0 0 -3.56 3
17:00 1461 J/kg -6.0 K 0 % 0 % 0 % 0 m²/s² 0 0 -4.92 3
18:00 1557 J/kg -6.1 K 0 % 0 % 0 % 0 m²/s² 0 0 -5.56 1
19:00 1655 J/kg -6.0 K 0 % 0 % 0 % 0 m²/s² 0 0 -5.04 1
20:00 1701 J/kg -5.7 K 0 % 0 % 0 % 0 m²/s² 0 0 -4.14 2
21:00 1344 J/kg -5.1 K 0 % 0 % 0 % 0 m²/s² 0 0 -3.54 3
22:00 680 J/kg -3.7 K 0 % 0 % 0 % 0 m²/s² 0 0 -2.23 3
23:00 194 J/kg -3.8 K 0 % 0 % 0 % 0 m²/s² 0 0 -2.33 2
 05:30     20:39    Daglengte: 15:09 Woensdag 28 Jul
00:00 70 J/kg -3.4 K 0 % 0 % 0 % 0 m²/s² 0 0 -1.45 3
01:00 0 J/kg -2.1 K 0 % 0 % 0 % 0 m²/s² 0 0 -0.21 2
02:00 0 J/kg -2.4 K 0 % 0 % 0 % 0 m²/s² 0 0 -0.9 1
03:00 0 J/kg -2.6 K 0 % 0 % 0 % 0 m²/s² 0 0 -1.64 3
04:00 0 J/kg -2.5 K 0 % 0 % 0 % 0 m²/s² 0 0 -1.57 3
05:00 0 J/kg -1.8 K 0 % 0 % 0 % 0 m²/s² 0 0 -0.78 45
06:00 0 J/kg -1.7 K 0 % 0 % 0 % 0 m²/s² 0 0 0.67 45
07:00 0 J/kg -1.1 K 0 % 0 % 0 % 0 m²/s² 0 0 1.81 45
08:00 0 J/kg -1.2 K 0 % 0 % 0 % 0 m²/s² 0 0 1.53 2
09:00 123 J/kg -1.5 K 0 % 0 % 0 % 0 m²/s² 0 0 1.41 3
10:00 692 J/kg -3.0 K 0 % 0 % 0 % 0 m²/s² 0 0 0.33 3
11:00 1154 J/kg -4.1 K 0 % 0 % 0 % 0 m²/s² 0 0 -0.68 3
12:00 1134 J/kg -3.9 K 0 % 0 % 0 % 0 m²/s² 0 0 -0.39 3
13:00 928 J/kg -3.5 K 0 % 0 % 0 % 0 m²/s² 0 0 -0.77 3
14:00 875 J/kg -3.5 K 0 % 0 % 0 % 0 m²/s² 0 0 -0.98 3
15:00 1072 J/kg -4.3 K 0 % 0 % 0 % 0 m²/s² 0 0 -1.84 3
16:00 1305 J/kg -5.0 K 0 % 0 % 0 % 0 m²/s² 0 0 -2.78 3
17:00 1421 J/kg -4.5 K 0 % 0 % 0 % 0 m²/s² 0 0 -3.81 3
18:00 0 J/kg -1.2 K 0 % 0 % 0 % 0 m²/s² 0 0 -1.2 80
19:00 0 J/kg -0.2 K 0 % 0 % 0 % 0 m²/s² 0 0 1.03 3
20:00 0 J/kg 0.6 K 0 % 0 % 0 % 0 m²/s² 0 0 1.53 3
21:00 0 J/kg 1.4 K 0 % 0 % 0 % 0 m²/s² 0 0 3.68 3
22:00 0 J/kg 1.9 K 0 % 0 % 0 % 0 m²/s² 0 0 4.96 3
23:00 0 J/kg 2.1 K 0 % 0 % 0 % 0 m²/s² 0 0 4.59 2
 05:31     20:37    Daglengte: 15:06 Donderdag 29 Jul
00:00 0 J/kg 1.8 K 0 % 0 % 0 % 0 m²/s² 0 0 3.93 1
01:00 0 J/kg 1.9 K 0 % 0 % 0 % 0 m²/s² 0 0 3.31 1
02:00 0 J/kg 1.5 K 0 % 0 % 0 % 0 m²/s² 0 0 2.28 0
03:00 0 J/kg 0.5 K 0 % 0 % 0 % 0 m²/s² 0 0 1.37 0
04:00 0 J/kg 0.2 K 0 % 0 % 0 % 0 m²/s² 0 0 1.16 0
05:00 0 J/kg 0.3 K 0 % 0 % 0 % 0 m²/s² 0 0 0.84 0
06:00 0 J/kg 0.4 K 0 % 0 % 0 % 0 m²/s² 0 0 1.12 0
07:00 0 J/kg 0.2 K 0 % 0 % 0 % 0 m²/s² 0 0 0.92 1
08:00 0 J/kg 0.1 K 0 % 0 % 0 % 0 m²/s² 0 0 1.12 2
09:00 1 J/kg -0.6 K 0 % 0 % 0 % 0 m²/s² 0 0 0.63 3
10:00 121 J/kg -1.6 K 0 % 0 % 0 % 0 m²/s² 0 0 0.05 2
11:00 570 J/kg -2.8 K 0 % 0 % 0 % 0 m²/s² 0 0 -0.97 2
12:00 881 J/kg -3.3 K 0 % 0 % 0 % 0 m²/s² 0 0 -1.35 2
13:00 1057 J/kg -3.7 K 0 % 0 % 0 % 0 m²/s² 0 0 -1.48 2
14:00 1290 J/kg -4.1 K 0 % 0 % 0 % 0 m²/s² 0 0 -1.94 1
Temp Baro Wind Neerslag
  EWN Forecast EWN WRFDA DWD ICON FMI HIRLAM MET Norway GFS
 05:28     20:41    Daglengte: 15:13 Vandaag
17:00 27.0° 1010.2 hPa 3.3 m/s 0.0 mm 28.9° 1009.5 hPa 3.3 m/s 0.6 mm 28.5° 1009.5 hPa 4.0 m/s -1.9 mm 26.9° 1011.3 hPa 3.2 m/s 0.0 mm 29.5° 1009.0 hPa 3.8 m/s
20:00 25.2° 1010.1 hPa 3.1 m/s 0.0 mm 20.9° 1011.6 hPa 8.2 m/s 4.7 mm 25.7° 1009.2 hPa 4.7 m/s 0.1 mm 25.8° 1010.8 hPa 1.1 m/s 0.0 mm 22.8° 1009.2 hPa 4.2 m/s
23:00 21.3° 1011.8 hPa 3.0 m/s 0.0 mm 18.3° 1013.0 hPa 3.3 m/s 5.4 mm 20.3° 1013.1 hPa 4.5 m/s 1.9 mm 22.6° 1011.2 hPa 2.9 m/s 0.0 mm 17.8° 1013.2 hPa 1.3 m/s
 05:29     20:40    Daglengte: 15:11 Morgen
02:00 20.5° 1013.0 hPa 4.9 m/s 0.0 mm 18.8° 1013.7 hPa 6.6 m/s 5.4 mm 20.0° 1013.5 hPa 5.1 m/s 0.1 mm 20.6° 1012.4 hPa 4.7 m/s 0.0 mm 17.5° 1014.6 hPa 3.0 m/s
05:00 19.5° 1013.8 hPa 5.3 m/s 0.0 mm 16.3° 1013.4 hPa 3.7 m/s 5.4 mm 19.3° 1014.6 hPa 5.5 m/s 0.0 mm 19.7° 1013.4 hPa 4.5 m/s 0.0 mm 16.9° 1014.7 hPa 3.4 m/s
08:00 20.4° 1015.2 hPa 5.1 m/s 0.0 mm 20.1° 1015.2 hPa 4.9 m/s 5.4 mm 20.4° 1016.1 hPa 5.1 m/s 0.0 mm 21.0° 1014.4 hPa 4.9 m/s 0.0 mm 19.3° 1016.1 hPa 3.1 m/s
11:00 23.7° 1015.5 hPa 4.6 m/s 0.0 mm 23.7° 1015.4 hPa 5.3 m/s 5.4 mm 23.7° 1016.1 hPa 4.9 m/s 0.0 mm 24.2° 1014.6 hPa 4.6 m/s 0.0 mm 24.5° 1015.6 hPa 1.7 m/s
14:00 26.8° 1013.8 hPa 1.6 m/s 0.0 mm 27.0° 1014.5 hPa 2.6 m/s 5.4 mm 25.6° 1015.2 hPa 3.1 m/s 0.0 mm 27.7° 1012.9 hPa 1.3 m/s 0.0 mm 26.7° 1014.3 hPa 0.9 m/s
17:00 27.4° 1012.5 hPa 1.9 m/s 0.0 mm 29.6° 1012.6 hPa 2.2 m/s 5.4 mm 27.0° 1013.5 hPa 0.4 m/s 0.0 mm 28.3° 1012.1 hPa 1.7 m/s 0.0 mm 27.7° 1012.3 hPa 2.5 m/s
20:00 25.1° 1012.4 hPa 1.9 m/s 0.0 mm 26.7° 1011.5 hPa 0.6 m/s 5.9 mm 25.1° 1013.5 hPa 2.1 m/s 0.0 mm 24.9° 1012.4 hPa 1.3 m/s 0.0 mm 23.3° 1010.9 hPa 2.6 m/s
23:00 22.2° 1013.5 hPa 1.3 m/s 0.0 mm 22.5° 1013.1 hPa 4.4 m/s 6.1 mm 21.7° 1013.8 hPa 0.9 m/s 0.0 mm 22.6° 1013.6 hPa 1.2 m/s 0.0 mm 18.5° 1012.2 hPa 1.4 m/s
 05:30     20:39    Daglengte: 15:09 Woensdag 28 Jul
02:00 20.6° 1013.3 hPa 1.4 m/s 0.0 mm 19.2° 1012.8 hPa 3.0 m/s 6.1 mm 19.0° 1013.3 hPa 0.8 m/s 0.0 mm 20.8° 1014.0 hPa 2.3 m/s 0.0 mm 18.0° 1013.2 hPa 3.0 m/s
05:00 19.5° 1012.9 hPa 1.1 m/s 0.0 mm 17.3° 1013.9 hPa 1.7 m/s 6.1 mm 17.2° 1012.6 hPa 0.6 m/s 0.0 mm 19.8° 1014.7 hPa 3.7 m/s 0.0 mm 17.3° 1014.2 hPa 3.8 m/s
08:00 21.1° 1013.1 hPa 2.5 m/s 0.0 mm 21.5° 1013.5 hPa 0.5 m/s 6.1 mm 20.7° 1012.7 hPa 1.6 m/s 0.0 mm 20.9° 1015.6 hPa 3.4 m/s 0.0 mm 18.9° 1014.5 hPa 2.6 m/s
11:00 24.2° 1013.2 hPa 4.3 m/s 0.8 mm 27.3° 1012.5 hPa 0.9 m/s 6.1 mm 21.4° 1014.5 hPa 6.4 m/s 0.0 mm 24.7° 1013.3 hPa 1.3 m/s
14:00 25.1° 1012.6 hPa 4.0 m/s 3.3 mm 29.3° 1011.5 hPa 4.3 m/s 6.1 mm 24.5° 1013.3 hPa 4.7 m/s 0.1 mm 26.8° 1012.5 hPa 2.0 m/s
17:00 24.9° 1012.4 hPa 3.8 m/s 5.2 mm 28.2° 1010.3 hPa 5.3 m/s 6.5 mm 24.5° 1013.2 hPa 4.4 m/s 0.0 mm 23.6° 1013.5 hPa 4.2 m/s
20:00 20.7° 1014.0 hPa 5.8 m/s 8.7 mm 19.2° 1012.8 hPa 5.4 m/s 22.5 mm 20.9° 1014.6 hPa 5.7 m/s 0.3 mm 17.4° 1016.5 hPa 3.7 m/s
23:00 18.5° 1015.3 hPa 4.2 m/s 10.7 mm 17.5° 1013.9 hPa 3.8 m/s 24.6 mm 18.7° 1015.3 hPa 3.7 m/s 0.0 mm 16.2° 1016.3 hPa 2.2 m/s
 05:31     20:37    Daglengte: 15:06 Donderdag 29 Jul
02:00 17.7° 1014.8 hPa 2.8 m/s 3.0 mm 17.6° 1013.2 hPa 3.8 m/s 24.6 mm 17.4° 1015.4 hPa 2.7 m/s 0.0 mm 14.2° 1016.3 hPa 1.8 m/s
05:00 17.0° 1014.6 hPa 2.7 m/s 0.0 mm 17.2° 1013.1 hPa 2.8 m/s 24.6 mm 15.6° 1015.8 hPa 1.5 m/s 0.0 mm 13.5° 1016.4 hPa 1.7 m/s
08:00 19.2° 1014.8 hPa 2.9 m/s 0.0 mm 22.6° 1013.1 hPa 3.1 m/s 24.6 mm 18.5° 1015.8 hPa 1.5 m/s 0.0 mm 17.4° 1016.0 hPa 1.5 m/s
11:00 23.9° 1014.7 hPa 2.9 m/s 0.0 mm 28.5° 1011.6 hPa 3.4 m/s 24.6 mm 22.8° 1015.5 hPa 2.8 m/s 0.0 mm 24.6° 1015.0 hPa 0.6 m/s
14:00 27.6° 1013.0 hPa 2.2 m/s 0.0 mm 31.3° 1010.1 hPa 2.6 m/s 24.7 mm 26.7° 1013.7 hPa 2.1 m/s 0.0 mm 27.9° 1013.5 hPa 2.2 m/s
17:00 27.6° 1012.4 hPa 0.8 m/s 15.9 mm 27.6° 1012.4 hPa 0.8 m/s 15.9 mm
20:00 23.7° 1012.1 hPa 0.5 m/s 15.9 mm 23.7° 1012.1 hPa 0.5 m/s 15.9 mm
23:00 19.4° 1012.8 hPa 1.6 m/s 15.9 mm 19.4° 1012.8 hPa 1.6 m/s 15.9 mm
 05:33     20:36    Daglengte: 15:03 Vrijdag 30 Jul
02:00 17.7° 1013.5 hPa 1.5 m/s 16.0 mm 17.7° 1013.5 hPa 1.5 m/s 16.0 mm
05:00 17.1° 1013.5 hPa 1.6 m/s 16.7 mm 17.1° 1013.5 hPa 1.6 m/s 16.7 mm
08:00 19.2° 1013.9 hPa 1.4 m/s 18.6 mm 19.2° 1013.9 hPa 1.4 m/s 18.6 mm
11:00 22.2° 1013.7 hPa 2.2 m/s 18.8 mm 22.2° 1013.7 hPa 2.2 m/s 18.8 mm
14:00 24.7° 1012.0 hPa 2.9 m/s 18.8 mm 24.7° 1012.0 hPa 2.9 m/s 18.8 mm
17:00 27.5° 1010.7 hPa 2.2 m/s 18.9 mm 27.5° 1010.7 hPa 2.2 m/s 18.9 mm
20:00 22.9° 1009.9 hPa 1.4 m/s 18.9 mm 22.9° 1009.9 hPa 1.4 m/s 18.9 mm
23:00 19.3° 1010.3 hPa 1.2 m/s 18.9 mm 19.3° 1010.3 hPa 1.2 m/s 18.9 mm
 05:34     20:35    Daglengte: 15:01 Zaterdag 31 Jul
02:00 18.0° 1010.3 hPa 0.8 m/s 18.9 mm 18.0° 1010.3 hPa 0.8 m/s 18.9 mm
05:00 17.5° 1009.4 hPa 0.9 m/s 19.4 mm 17.5° 1009.4 hPa 0.9 m/s 19.4 mm
08:00 17.5° 1010.9 hPa 2.0 m/s 22.9 mm 17.5° 1010.9 hPa 2.0 m/s 22.9 mm
11:00 18.6° 1010.6 hPa 1.4 m/s 23.5 mm 18.6° 1010.6 hPa 1.4 m/s 23.5 mm
14:00 24.9° 1009.6 hPa 0.4 m/s 23.5 mm 24.9° 1009.6 hPa 0.4 m/s 23.5 mm
17:00 26.6° 1007.4 hPa 1.9 m/s 23.5 mm 26.6° 1007.4 hPa 1.9 m/s 23.5 mm
20:00 18.6° 1010.0 hPa 3.2 m/s 30.0 mm 18.6° 1010.0 hPa 3.2 m/s 30.0 mm
23:00 17.1° 1010.4 hPa 1.5 m/s 31.8 mm 17.1° 1010.4 hPa 1.5 m/s 31.8 mm
 05:35     20:33    Daglengte: 14:58 Zondag 01 Aug
02:00 17.3° 1011.3 hPa 2.4 m/s 33.6 mm 17.3° 1011.3 hPa 2.4 m/s 33.6 mm
05:00 16.9° 1010.8 hPa 1.8 m/s 37.6 mm 16.9° 1010.8 hPa 1.8 m/s 37.6 mm
08:00 16.3° 1010.7 hPa 0.8 m/s 40.4 mm 16.3° 1010.7 hPa 0.8 m/s 40.4 mm
11:00 18.7° 1009.5 hPa 0.3 m/s 40.9 mm 18.7° 1009.5 hPa 0.3 m/s 40.9 mm
14:00 16.4° 1009.4 hPa 2.2 m/s 43.7 mm 16.4° 1009.4 hPa 2.2 m/s 43.7 mm
17:00 13.8° 1011.7 hPa 4.5 m/s 50.5 mm 13.8° 1011.7 hPa 4.5 m/s 50.5 mm
20:00 12.9° 1012.8 hPa 4.2 m/s 56.3 mm 12.9° 1012.8 hPa 4.2 m/s 56.3 mm
23:00 11.5° 1012.7 hPa 3.4 m/s 56.3 mm 11.5° 1012.7 hPa 3.4 m/s 56.3 mm
 05:36     20:32    Daglengte: 14:56 Maandag 02 Aug
02:00 10.4° 1013.4 hPa 3.0 m/s 56.3 mm 10.4° 1013.4 hPa 3.0 m/s 56.3 mm
05:00 10.4° 1014.2 hPa 3.5 m/s 56.3 mm 10.4° 1014.2 hPa 3.5 m/s 56.3 mm
08:00 13.7° 1015.6 hPa 4.2 m/s 56.3 mm 13.7° 1015.6 hPa 4.2 m/s 56.3 mm
11:00 19.2° 1015.9 hPa 6.6 m/s 56.3 mm 19.2° 1015.9 hPa 6.6 m/s 56.3 mm
14:00 22.2° 1015.3 hPa 6.2 m/s 56.3 mm 22.2° 1015.3 hPa 6.2 m/s 56.3 mm
20:00 18.1° 1015.9 hPa 3.3 m/s 56.3 mm 18.1° 1015.9 hPa 3.3 m/s 56.3 mm
 05:38     20:30    Daglengte: 14:52 Dinsdag 03 Aug
02:00 15.7° 1018.1 hPa 1.1 m/s 56.3 mm 15.7° 1018.1 hPa 1.1 m/s 56.3 mm
08:00 16.9° 1018.7 hPa 1.2 m/s 56.3 mm 16.9° 1018.7 hPa 1.2 m/s 56.3 mm
14:00 21.2° 1017.1 hPa 1.6 m/s 57.1 mm 21.2° 1017.1 hPa 1.6 m/s 57.1 mm
20:00 18.9° 1017.0 hPa 2.4 m/s 58.8 mm 18.9° 1017.0 hPa 2.4 m/s 58.8 mm
 05:39     20:29    Daglengte: 14:50 Woensdag 04 Aug
02:00 13.8° 1019.8 hPa 2.3 m/s 58.8 mm 13.8° 1019.7 hPa 2.3 m/s 58.8 mm
08:00 17.2° 1019.2 hPa 0.5 m/s 58.8 mm 17.2° 1019.2 hPa 0.5 m/s 58.8 mm
14:00 27.3° 1016.0 hPa 1.4 m/s 58.8 mm 27.3° 1016.0 hPa 1.4 m/s 58.8 mm
20:00 22.0° 1014.0 hPa 0.4 m/s 58.8 mm 22.0° 1014.0 hPa 0.4 m/s 58.8 mm
 05:40     20:27    Daglengte: 14:47 Donderdag 05 Aug
02:00 17.4° 1013.8 hPa 1.7 m/s 58.8 mm 17.4° 1013.8 hPa 1.7 m/s 58.8 mm
08:00 20.3° 1013.4 hPa 1.5 m/s 58.9 mm 20.3° 1013.4 hPa 1.5 m/s 58.9 mm
14:00 25.1° 1013.6 hPa 0.6 m/s 0.6 mm
20:00 20.3° 1012.1 hPa 0.3 m/s 1.4 mm
 05:42     20:26    Daglengte: 14:44 Vrijdag 06 Aug
02:00 16.1° 1012.6 hPa 1.6 m/s 0.7 mm
08:00 17.7° 1011.7 hPa 1.4 m/s 0.4 mm
14:00 23.7° 1009.7 hPa 1.4 m/s 0.8 mm
20:00 18.9° 1008.5 hPa 2.1 m/s 1.5 mm
 05:43     20:24    Daglengte: 14:41 Zaterdag 07 Aug
02:00 15.8° 1009.6 hPa 2.7 m/s 1.9 mm
08:00 16.4° 1009.8 hPa 3.2 m/s 1.5 mm
14:00 20.9° 1009.6 hPa 3.4 m/s 2.1 mm
20:00 17.5° 1009.8 hPa 2.9 m/s 1.5 mm
 05:44     20:22    Daglengte: 14:38 Zondag 08 Aug
02:00 14.6° 1011.6 hPa 3.2 m/s 2.0 mm
08:00 15.7° 1012.8 hPa 3.8 m/s 1.6 mm
14:00 20.7° 1013.0 hPa 4.0 m/s 1.6 mm
20:00 17.2° 1013.8 hPa 2.7 m/s 1.5 mm
 05:46     20:21    Daglengte: 14:35 Maandag 09 Aug
02:00 14.4° 1016.0 hPa 3.1 m/s 0.5 mm
08:00 16.1° 1016.8 hPa 2.9 m/s 0.6 mm
14:00 21.9° 1016.4 hPa 3.5 m/s 0.5 mm
20:00 18.0° 1016.5 hPa 1.8 m/s 0.3 mm
 05:47     20:19    Daglengte: 14:32 Dinsdag 10 Aug
02:00 14.7° 1018.2 hPa 2.2 m/s 0.2 mm
08:00 16.5° 1018.6 hPa 2.5 m/s 0.2 mm
14:00 22.7° 1017.6 hPa 2.9 m/s 0.6 mm
FMI Hirlam - 7.5 km EWN WRFDA - 12 km DWD ICON - 7 km GFS - 25 km Basiskaart






























































Updatetijd (Europe/Amsterdam) Resolutie Lengte Stap
FMI Hirlam 14:00, 20:00, 02:00, 08:00 7.5 km 49h 1h
EWN WRFDA 10:30, 16:30, 22:30, 04:30 12 km 73h 1h
DWD ICON 11:45, 17:45, 23:45, 05:45 7 km 75h 1h
GFS 14:15, 20:15, 02:15, 08:15 25 km 237h 3h
30+ mm
25-30 mm
20-25 mm
15-20 mm
10-15 mm
6-10 mm
4-6 mm
2-4 mm
1-2 mm
0.5-1 mm
0.2-0.5 mm
0.1-0.2 mm
30+ mm
25-30 mm
20-25 mm
15-20 mm
10-15 mm
6-10 mm
4-6 mm
2-4 mm
1-2 mm
0.5-1 mm
0.2-0.5 mm
0.1-0.2 mm
Sneeuwval
Natte sneeuw
Hagel
Vorst
30+ mm
25-30 mm
20-25 mm
15-20 mm
10-15 mm
6-10 mm
4-6 mm
2-4 mm
1-2 mm
0.5-1 mm
0.2-0.5 mm
0.1-0.2 mm
Sneeuwval
Natte sneeuw
Hagel
Vorst
Onweer
50 mm
40 mm
30 mm
26 mm
22 mm
18 mm
14 mm
10 mm
9 mm
8 mm
7 mm
6 mm
5 mm
4.5 mm
4 mm
3.5 mm
3 mm
2.5 mm
2 mm
1.5 mm
1 mm
0.8 mm
0.6 mm
0.4 mm
0.2 mm
0.05 mm
35°
30°
25°
20°
15°
10°
-5°
-10°
-15°
-20°
-25°
-30°
-35°
33> m/s
29 m/s
25 m/s
21 m/s
17 m/s
14 m/s
11 m/s
8 m/s
5 m/s
3 m/s
0 m/s
2600 J/kg
2400 J/kg
2200 J/kg
2000 J/kg
1800 J/kg
1600 J/kg
1400 J/kg
1200 J/kg
1000 J/kg
800 J/kg
600 J/kg
400 J/kg
200 J/kg
70 dBZ
65 dBZ
60 dBZ
55 dBZ
50 dBZ
45 dBZ
40 dBZ
35 dBZ
30 dBZ
25 dBZ
20 dBZ
15 dBZ
10 dBZ
5 dBZ
-1 K
-2 K
-3 K
-4 K
-5 K
-6 K
-7 K
-8 K
-9 K
950 m²/s²
900 m²/s²
850 m²/s²
800 m²/s²
750 m²/s²
700 m²/s²
650 m²/s²
600 m²/s²
550 m²/s²
500 m²/s²
450 m²/s²
400 m²/s²
350 m²/s²
300 m²/s²
250 m²/s²
200 m²/s²
150 m²/s²
100 m²/s²
46 m/s
44 m/s
42 m/s
40 m/s
38 m/s
36 m/s
34 m/s
32 m/s
30 m/s
28 m/s
26 m/s
24 m/s
22 m/s
20 m/s
16 m/s
12 m/s
8 m/s
4 m/s
30 m/s
28 m/s
26 m/s
24 m/s
22 m/s
20 m/s
18 m/s
16 m/s
14 m/s
12 m/s
10 m/s
8 m/s
6 m/s
4 m/s
2 m/s
3.0
2.8
2.6
2.4
2.2
2.0
1.8
1.6
1.4
1.2
1.0
0.8
0.6
0.4
0.2
15
14
13
12
11
10
9
8
7
6
5
4
3
2
1
90%
80%
70%
60%
50%
40%
30%
20%
10%
42
40